This is the latest recevied weather packets stored in our database for station/object N5COP-13. If no packets are shown the sender has not sent any weather packets the latest 10 day(s).
| Time | Temp. | Humidity | Pressure | Rain* | Wind** | Luminosity | Snow |
|---|---|---|---|---|---|---|---|
| 1777600835 | 13.33° C | 67% | 1016.4 hPa | 0 mm | - | 0 W/m² | - |
| 1777600535 | 13.33° C | 67% | 1016.4 hPa | 0 mm | - | 0 W/m² | - |
| 1777600232 | 13.33° C | 66% | 1016.4 hPa | 0 mm | - | 0 W/m² | - |
| 1777599927 | 13.33° C | 66% | 1016.3 hPa | 0 mm | - | 0 W/m² | - |
| 1777599624 | 13.33° C | 66% | 1016.1 hPa | 0 mm | - | 1 W/m² | - |
| 1777599320 | 13.33° C | 65% | 1016.1 hPa | 0 mm | - | 3 W/m² | - |
| 1777599017 | 13.33° C | 64% | 1015.8 hPa | 0 mm | - | 5 W/m² | - |
| 1777598714 | 13.33° C | 64% | 1015.9 hPa | 0 mm | - | 6 W/m² | - |
| 1777598410 | 13.89° C | 64% | 1016 hPa | 0 mm | - | 8 W/m² | - |
| 1777598109 | 13.89° C | 63% | 1015.8 hPa | 0 mm | - | 7 W/m² | - |
| 1777597803 | 13.89° C | 63% | 1015.6 hPa | 0 mm | - | 11 W/m² | - |
| 1777597498 | 13.89° C | 62% | 1015.5 hPa | 0 mm | - | 14 W/m² | - |
| 1777597194 | 13.89° C | 61% | 1015.8 hPa | 0 mm | - | 15 W/m² | - |
| 1777596884 | 13.89° C | 61% | 1015.8 hPa | 0 mm | - | 19 W/m² | - |
| 1777596580 | 14.44° C | 61% | 1015.6 hPa | 0 mm | - | 23 W/m² | - |
| 1777596277 | 14.44° C | 60% | 1015.5 hPa | 0 mm | - | 31 W/m² | - |
| 1777595975 | 14.44° C | 60% | 1015.8 hPa | 0 mm | - | 34 W/m² | - |
| 1777595669 | 14.44° C | 59% | 1015.8 hPa | 0 mm | - | 35 W/m² | - |
| 1777595365 | 14.44° C | 59% | 1015.4 hPa | 0 mm | - | 36 W/m² | - |
| 1777595062 | 15° C | 58% | 1015.4 hPa | 0 mm | - | 47 W/m² | - |
| 1777594758 | 15° C | 58% | 1015.3 hPa | 0 mm | - | 52 W/m² | - |
| 1777594455 | 15° C | 57% | 1015.6 hPa | 0 mm | - | 61 W/m² | - |
| 1777594149 | 15° C | 56% | 1015.5 hPa | 0 mm | - | 68 W/m² | - |
| 1777593846 | 15° C | 56% | 1015.5 hPa | 0 mm | - | 95 W/m² | - |
| 1777593543 | 15.56° C | 55% | 1015.4 hPa | 0 mm | - | 91 W/m² | - |
* Rain latest hour (hover to see other rain measurements)
** Current wind speed in m/s (hover to see current wind gust speed)